| time (UTC) | temp F | wind direction | speed knots | gust knots | rain 1hr in | rain 24hr in | rain mn in | humidity % | barometer mb |
| 20260509032539 | 71 | 175 | 0.0 | 0.0 | 0.00 | 0.76 | 0.76 | 64 | 1010.9 |
| 20260509032038 | 71 | 175 | 0.0 | 0.0 | 0.00 | 0.76 | 0.76 | 65 | 1010.7 |
| 20260509031538 | 71 | 175 | 0.0 | 0.0 | 0.00 | 0.76 | 0.76 | 64 | 1010.5 |
| 20260509031038 | 71 | 175 | 0.0 | 0.0 | 0.00 | 0.76 | 0.76 | 64 | 1010.2 |
| 20260509030538 | 71 | 175 | 0.0 | 0.0 | 0.00 | 0.76 | 0.76 | 64 | 1010.3 |
| 20260509030038 | 71 | 175 | 0.0 | 0.0 | 0.00 | 0.76 | 0.76 | 64 | 1010.3 |
| 20260509025537 | 71 | 175 | 0.0 | 0.0 | 0.00 | 0.76 | 0.76 | 64 | 1010.2 |
| 20260509025038 | 71 | 175 | 0.0 | 0.0 | 0.00 | 0.76 | 0.76 | 64 | 1010.3 |
| 20260509024537 | 71 | 175 | 0.0 | 0.9 | 0.00 | 0.76 | 0.76 | 64 | 1010.1 |
| 20260509024037 | 72 | 175 | 0.0 | 1.7 | 0.00 | 0.76 | 0.76 | 64 | 1010.0 |
| 20260509023537 | 72 | 175 | 0.0 | 1.7 | 0.00 | 0.76 | 0.76 | 64 | 1009.9 |
| 20260509023037 | 72 | 175 | 0.0 | 1.7 | 0.00 | 0.76 | 0.76 | 64 | 1009.7 |
| 20260509022536 | 72 | 175 | 0.0 | 1.7 | 0.00 | 0.76 | 0.76 | 63 | 1009.4 |
| 20260509022036 | 72 | 175 | 0.0 | 5.2 | 0.00 | 0.76 | 0.76 | 63 | 1009.2 |
| 20260509021536 | 72 | 175 | 0.0 | 5.2 | 0.00 | 0.76 | 0.76 | 63 | 1008.8 |
| 20260509021039 | 72 | 170 | 0.0 | 5.2 | 0.00 | 0.76 | 0.76 | 63 | 1008.7 |
| 20260509020539 | 72 | 170 | 0.9 | 5.2 | 0.00 | 0.76 | 0.76 | 63 | 1008.6 |
| 20260509020042 | 72 | 180 | 0.0 | 3.5 | 0.00 | 0.76 | 0.76 | 63 | 1008.6 |
| 20260509015536 | 72 | 175 | 0.0 | 3.5 | 0.00 | 0.76 | 0.76 | 63 | 1008.7 |
| 20260509015036 | 72 | 175 | 0.0 | 4.3 | 0.00 | 0.76 | 0.76 | 62 | 1008.6 |
| 20260509014536 | 73 | 175 | 0.0 | 4.3 | 0.00 | 0.76 | 0.76 | 62 | 1008.5 |
| 20260509014035 | 73 | 175 | 0.0 | 5.2 | 0.00 | 0.76 | 0.76 | 62 | 1008.3 |
| 20260509013535 | 73 | 175 | 0.0 | 5.2 | 0.00 | 0.76 | 0.76 | 62 | 1008.4 |
| 20260509013046 | 73 | 175 | 0.0 | 4.3 | 0.00 | 0.76 | 0.76 | 62 | 1008.4 |
| 20260509012535 | 73 | 175 | 0.0 | 4.3 | 0.00 | 0.76 | 0.76 | 62 | 1008.4 |
| 20260509012034 | 73 | 180 | 0.0 | 3.5 | 0.00 | 0.76 | 0.76 | 62 | 1008.4 |
| 20260509011536 | 73 | 180 | 0.0 | 5.2 | 0.00 | 0.76 | 0.76 | 62 | 1008.5 |
| 20260509011035 | 73 | 180 | 0.9 | 7.0 | 0.00 | 0.76 | 0.76 | 62 | 1008.5 |
| 20260509010536 | 73 | 180 | 0.9 | 7.0 | 0.00 | 0.76 | 0.76 | 62 | 1008.5 |
| 20260509010047 | 74 | 175 | 0.0 | 2.6 | 0.00 | 0.76 | 0.76 | 62 | 1008.5 |
| 20260509005534 | 74 | 175 | 0.0 | 2.6 | 0.00 | 0.76 | 0.76 | 62 | 1008.4 |
| 20260509005034 | 74 | 175 | 0.9 | 2.6 | 0.00 | 0.76 | 0.76 | 61 | 1008.4 |
| 20260509004534 | 74 | 175 | 0.0 | 3.5 | 0.00 | 0.76 | 0.76 | 61 | 1008.3 |
| 20260509004033 | 74 | 175 | 0.9 | 3.5 | 0.00 | 0.76 | 0.76 | 61 | 1008.1 |
| 20260509003533 | 74 | 175 | 0.0 | 2.6 | 0.00 | 0.76 | 0.76 | 61 | 1008.0 |
| 20260509003033 | 74 | 175 | 0.9 | 2.6 | 0.00 | 0.76 | 0.76 | 61 | 1008.0 |
| 20260509002532 | 74 | 175 | 0.0 | 7.0 | 0.00 | 0.76 | 0.76 | 61 | 1008.0 |
| 20260509002032 | 74 | 175 | 0.0 | 7.0 | 0.00 | 0.76 | 0.76 | 61 | 1008.0 |
| 20260509001533 | 74 | 185 | 0.0 | 4.3 | 0.00 | 0.76 | 0.76 | 61 | 1007.9 |
| 20260509001034 | 75 | 185 | 0.9 | 5.2 | 0.00 | 0.76 | 0.76 | 60 | 1008.0 |
| 20260509000531 | 75 | 185 | 1.7 | 7.8 | 0.00 | 0.76 | 0.76 | 60 | 1008.0 |
| 20260509000031 | 75 | 185 | 1.7 | 7.8 | 0.00 | 0.76 | 0.76 | 60 | 1008.1 |
| 20260508235531 | 76 | 193 | 1.7 | 7.8 | 0.00 | 0.76 | 0.76 | 60 | 1008.1 |
| 20260508235031 | 76 | 180 | 1.7 | 7.0 | 0.00 | 0.76 | 0.76 | 59 | 1008.0 |
| 20260508234530 | 76 | 193 | 0.9 | 5.2 | 0.00 | 0.76 | 0.76 | 59 | 1008.1 |
| 20260508234030 | 77 | 185 | 0.0 | 7.8 | 0.00 | 0.76 | 0.76 | 58 | 1008.2 |
| 20260508233532 | 77 | 185 | 2.6 | 7.8 | 0.00 | 0.76 | 0.76 | 59 | 1008.2 |
| 20260508233030 | 77 | 191 | 1.7 | 7.8 | 0.00 | 0.76 | 0.76 | 58 | 1008.3 |
| 20260508232530 | 77 | 185 | 0.9 | 7.8 | 0.00 | 0.76 | 0.76 | 59 | 1008.3 |
| 20260508232029 | 77 | 185 | 0.9 | 7.8 | 0.00 | 0.76 | 0.76 | 59 | 1008.3 |
| 20260508231529 | 77 | 185 | 1.7 | 5.2 | 0.00 | 0.76 | 0.76 | 59 | 1008.3 |
| 20260508231032 | 78 | 180 | 2.6 | 5.2 | 0.00 | 0.76 | 0.76 | 59 | 1008.2 |
| 20260508230528 | 78 | 171 | 1.7 | 5.2 | 0.00 | 0.76 | 0.76 | 58 | 1008.2 |
| 20260508230038 | 78 | 185 | 0.0 | 5.2 | 0.00 | 0.76 | 0.76 | 58 | 1008.2 |
| 20260508225529 | 78 | 189 | 1.7 | 7.8 | 0.00 | 0.76 | 0.76 | 59 | 1008.3 |
| 20260508225029 | 78 | 185 | 2.6 | 7.8 | 0.00 | 0.76 | 0.76 | 59 | 1008.3 |
| 20260508224536 | 78 | 185 | 0.9 | 4.3 | 0.00 | 0.76 | 0.76 | 59 | 1008.4 |
| 20260508224029 | 78 | 180 | 0.9 | 5.2 | 0.00 | 0.76 | 0.76 | 58 | 1008.5 |
| 20260508223529 | 78 | 180 | 0.9 | 5.2 | 0.00 | 0.76 | 0.76 | 59 | 1008.5 |
| 20260508223027 | 78 | 180 | 0.9 | 5.2 | 0.00 | 0.76 | 0.76 | 58 | 1008.5 |
| 20260508222529 | 78 | 175 | 1.7 | 5.2 | 0.00 | 0.76 | 0.76 | 58 | 1008.4 |
| 20260508222026 | 78 | 175 | 0.9 | 4.3 | 0.00 | 0.76 | 0.76 | 58 | 1008.3 |
| 20260508221539 | 78 | 164 | 0.0 | 4.3 | 0.00 | 0.76 | 0.76 | 58 | 1008.2 |
| 20260508221027 | 78 | 169 | 0.0 | 4.3 | 0.00 | 0.76 | 0.76 | 57 | 1008.3 |
| 20260508220526 | 78 | 180 | 0.9 | 3.5 | 0.00 | 0.76 | 0.76 | 58 | 1008.3 |
| 20260508220029 | 78 | 191 | 0.0 | 5.2 | 0.00 | 0.76 | 0.76 | 58 | 1008.4 |
| 20260508215526 | 78 | 191 | 0.9 | 5.2 | 0.00 | 0.76 | 0.76 | 57 | 1008.4 |
| 20260508215026 | 78 | 153 | 0.0 | 4.3 | 0.00 | 0.76 | 0.76 | 57 | 1008.3 |
| 20260508214526 | 78 | 151 | 0.9 | 7.8 | 0.00 | 0.76 | 0.76 | 57 | 1008.3 |
| 20260508214025 | 78 | 200 | 0.9 | 7.8 | 0.00 | 0.76 | 0.76 | 57 | 1008.1 |
| 20260508213525 | 78 | 202 | 1.7 | 7.8 | 0.00 | 0.76 | 0.76 | 58 | 1008.2 |
| 20260508213026 | 78 | 206 | 0.9 | 4.3 | 0.00 | 0.76 | 0.76 | 57 | 1008.2 |
| 20260508212624 | 78 | 206 | 0.9 | 7.8 | 0.00 | 0.76 | 0.76 | 56 | 1008.4 |
| 20260508212023 | 79 | 207 | 1.7 | 7.8 | 0.00 | 0.76 | 0.76 | 56 | 1008.2 |
| 20260508211522 | 79 | 185 | 0.9 | 7.8 | 0.00 | 0.76 | 0.76 | 57 | 1008.6 |
| 20260508211020 | 79 | 189 | 1.7 | 7.8 | 0.00 | 0.76 | 0.76 | 56 | 1009.1 |
| 20260508210520 | 79 | 205 | 1.7 | 8.7 | 0.00 | 0.76 | 0.76 | 56 | 1009.2 |
| 20260508210020 | 79 | 185 | 0.9 | 7.0 | 0.00 | 0.76 | 0.76 | 56 | 1009.3 |
| 20260508205518 | 79 | 199 | 1.7 | 7.0 | 0.00 | 0.76 | 0.76 | 56 | 1009.4 |
| 20260508205021 | 78 | 195 | 2.6 | 8.7 | 0.00 | 0.76 | 0.76 | 57 | 1009.6 |
| 20260508204517 | 79 | 197 | 4.3 | 8.7 | 0.00 | 0.76 | 0.76 | 56 | 1009.9 |
| 20260508204018 | 79 | 201 | 3.5 | 8.7 | 0.00 | 0.76 | 0.76 | 55 | 1010.1 |
| 20260508203517 | 79 | 191 | 2.6 | 7.8 | 0.00 | 0.76 | 0.76 | 56 | 1010.1 |
| 20260508203014 | 79 | 185 | 0.9 | 8.7 | 0.00 | 0.76 | 0.76 | 55 | 1010.2 |
| 20260508202515 | 80 | 207 | 3.5 | 8.7 | 0.00 | 0.76 | 0.76 | 55 | 1010.3 |
| 20260508202014 | 80 | 201 | 0.9 | 3.5 | 0.00 | 0.76 | 0.76 | 55 | 1010.2 |
| 20260508201515 | 80 | 202 | 0.0 | 7.0 | 0.00 | 0.76 | 0.76 | 55 | 1010.2 |
| 20260508201013 | 80 | 201 | 2.6 | 7.0 | 0.00 | 0.76 | 0.76 | 54 | 1010.4 |
| 20260508200512 | 80 | 204 | 1.7 | 7.0 | 0.00 | 0.76 | 0.76 | 55 | 1010.4 |
| 20260508200014 | 79 | 171 | 1.7 | 7.0 | 0.00 | 0.76 | 0.76 | 54 | 1010.4 |
| 20260508195512 | 80 | 175 | 0.9 | 5.2 | 0.00 | 0.76 | 0.76 | 53 | 1010.4 |
| 20260508195012 | 80 | 180 | 0.9 | 5.2 | 0.00 | 0.76 | 0.76 | 53 | 1010.6 |
| 20260508194511 | 80 | 180 | 0.9 | 5.2 | 0.00 | 0.76 | 0.76 | 55 | 1010.6 |
| 20260508194010 | 79 | 191 | 0.9 | 5.2 | 0.00 | 0.76 | 0.76 | 54 | 1010.6 |
| 20260508193511 | 79 | 185 | 0.9 | 4.3 | 0.00 | 0.76 | 0.76 | 55 | 1010.5 |
| 20260508193009 | 79 | 189 | 0.9 | 5.2 | 0.00 | 0.76 | 0.76 | 53 | 1010.6 |
| 20260508192508 | 79 | 191 | 0.9 | 6.1 | 0.00 | 0.76 | 0.76 | 54 | 1010.7 |
| 20260508192007 | 79 | 192 | 0.9 | 7.8 | 0.00 | 0.76 | 0.76 | 54 | 1010.8 |
| 20260508191508 | 79 | 206 | 0.9 | 5.2 | 0.00 | 0.76 | 0.76 | 52 | 1010.8 |
| 20260508191005 | 79 | 211 | 1.7 | 8.7 | 0.00 | 0.76 | 0.76 | 56 | 1010.8 |
| 20260508190504 | 79 | 175 | 0.0 | 5.2 | 0.00 | 0.76 | 0.76 | 54 | 1011.0 |
| 20260508190004 | 79 | 170 | 0.0 | 5.2 | 0.00 | 0.76 | 0.76 | 55 | 1011.1 |
| 20260508185506 | 78 | 141 | 0.9 | 4.3 | 0.00 | 0.76 | 0.76 | 57 | 1010.9 |
| 20260508185002 | 78 | 135 | 0.9 | 3.5 | 0.00 | 0.76 | 0.76 | 54 | 1011.0 |
| 20260508184502 | 78 | 143 | 0.0 | 7.0 | 0.00 | 0.76 | 0.76 | 54 | 1011.0 |
| 20260508184104 | 78 | 143 | 0.9 | 7.0 | 0.00 | 0.76 | 0.76 | 57 | 1011.1 |
| 20260508183559 | 78 | 175 | 0.9 | 4.3 | 0.00 | 0.76 | 0.76 | 55 | 1011.1 |
| 20260508183057 | 77 | 175 | 0.0 | 5.2 | 0.00 | 0.76 | 0.76 | 57 | 1011.3 |
| 20260508182556 | 77 | 175 | 0.0 | 5.2 | 0.00 | 0.76 | 0.76 | 55 | 1011.4 |
| 20260508182055 | 77 | 175 | 0.0 | 4.3 | 0.00 | 0.76 | 0.76 | 57 | 1011.5 |
| 20260508181554 | 77 | 175 | 0.0 | 5.2 | 0.00 | 0.76 | 0.76 | 56 | 1011.6 |
| 20260508181053 | 76 | 170 | 0.0 | 3.5 | 0.00 | 0.76 | 0.76 | 57 | 1011.6 |
| 20260508180552 | 76 | 180 | 0.9 | 3.5 | 0.00 | 0.76 | 0.76 | 56 | 1011.8 |
| 20260508180051 | 76 | 175 | 0.0 | 4.3 | 0.00 | 0.76 | 0.76 | 57 | 1012.0 |
| 20260508175550 | 76 | 175 | 0.9 | 4.3 | 0.00 | 0.76 | 0.76 | 56 | 1012.0 |
| 20260508175050 | 76 | 180 | 0.0 | 4.3 | 0.00 | 0.76 | 0.76 | 59 | 1012.0 |
| 20260508174549 | 75 | 180 | 0.0 | 4.3 | 0.00 | 0.76 | 0.76 | 57 | 1012.2 |
| 20260508174046 | 75 | 180 | 0.0 | 2.6 | 0.00 | 0.76 | 0.76 | 60 | 1012.2 |
| 20260508173545 | 74 | 180 | 0.9 | 2.6 | 0.00 | 0.76 | 0.76 | 59 | 1012.3 |
| 20260508173044 | 74 | 180 | 0.0 | 4.3 | 0.00 | 0.76 | 0.76 | 58 | 1012.4 |
| 20260508172541 | 73 | 180 | 1.7 | 4.3 | 0.00 | 0.76 | 0.76 | 60 | 1012.6 |
| 20260508172039 | 73 | 165 | 0.0 | 4.3 | 0.00 | 0.76 | 0.76 | 60 | 1012.7 |
| 20260508171539 | 72 | 164 | 0.9 | 7.8 | 0.00 | 0.76 | 0.76 | 61 | 1012.7 |
| 20260508171037 | 72 | 180 | 0.9 | 9.6 | 0.00 | 0.76 | 0.76 | 59 | 1012.9 |
| 20260508170538 | 72 | 180 | 1.7 | 9.6 | 0.00 | 0.76 | 0.76 | 60 | 1013.0 |
| 20260508170034 | 71 | 197 | 0.0 | 5.2 | 0.00 | 0.76 | 0.76 | 61 | 1013.1 |
| 20260508165533 | 71 | 191 | 1.7 | 4.3 | 0.00 | 0.76 | 0.76 | 60 | 1013.3 |
| 20260508165032 | 70 | 185 | 0.0 | 7.0 | 0.00 | 0.76 | 0.76 | 62 | 1013.3 |
| 20260508164536 | 70 | 185 | 0.0 | 7.0 | 0.00 | 0.76 | 0.76 | 62 | 1013.4 |
| 20260508164032 | 69 | 171 | 0.0 | 5.2 | 0.00 | 0.76 | 0.76 | 62 | 1013.4 |
| 20260508163528 | 68 | 195 | 0.0 | 7.0 | 0.00 | 0.76 | 0.76 | 64 | 1013.5 |
| 20260508163026 | 68 | 202 | 0.0 | 7.0 | 0.00 | 0.76 | 0.76 | 64 | 1013.5 |
| 20260508162524 | 67 | 200 | 0.0 | 7.8 | 0.00 | 0.76 | 0.76 | 66 | 1013.5 |
| 20260508162023 | 67 | 202 | 0.9 | 7.8 | 0.00 | 0.76 | 0.76 | 65 | 1013.9 |
| 20260508161522 | 66 | 200 | 0.0 | 7.8 | 0.00 | 0.76 | 0.76 | 66 | 1013.9 |
| 20260508161020 | 66 | 224 | 0.9 | 3.5 | 0.00 | 0.76 | 0.76 | 67 | 1014.0 |
| 20260508160519 | 66 | 226 | 0.0 | 3.5 | 0.00 | 0.76 | 0.76 | 68 | 1014.1 |
| 20260508160023 | 65 | 226 | 0.0 | 4.3 | 0.00 | 0.76 | 0.76 | 68 | 1014.0 |
| 20260508155519 | 64 | 226 | 0.0 | 4.3 | 0.00 | 0.76 | 0.76 | 69 | 1014.0 |
| 20260508155015 | 64 | 228 | 0.0 | 3.5 | 0.00 | 0.76 | 0.76 | 70 | 1014.2 |
| 20260508154513 | 63 | 228 | 0.0 | 6.1 | 0.00 | 0.76 | 0.76 | 70 | 1014.2 |
| 20260508154014 | 63 | 229 | 0.0 | 6.1 | 0.00 | 0.76 | 0.76 | 70 | 1014.4 |
| 20260508153516 | 63 | 239 | 0.0 | 2.6 | 0.00 | 0.76 | 0.76 | 73 | 1014.4 |
| 20260508153012 | 63 | 239 | 0.0 | 5.2 | 0.00 | 0.76 | 0.76 | 73 | 1014.2 |
| 20260508152512 | 63 | 239 | 0.0 | 5.2 | 0.00 | 0.76 | 0.76 | 76 | 1014.3 |
| 20260508152011 | 63 | 266 | 0.0 | 1.7 | 0.00 | 0.76 | 0.76 | 79 | 1014.2 |
| 20260508151511 | 63 | 266 | 0.0 | 3.5 | 0.00 | 0.76 | 0.76 | 78 | 1014.2 |
| 20260508151010 | 62 | 266 | 0.0 | 3.5 | 0.00 | 0.76 | 0.76 | 78 | 1014.3 |
| 20260508150509 | 62 | 284 | 0.0 | 0.9 | 0.00 | 0.76 | 0.76 | 79 | 1014.4 |
| 20260508150008 | 62 | 284 | 0.0 | 1.7 | 0.00 | 0.76 | 0.76 | 79 | 1014.4 |
| 20260508145512 | 62 | 284 | 0.0 | 1.7 | 0.00 | 0.76 | 0.76 | 79 | 1014.3 |
| 20260508145008 | 62 | 284 | 0.0 | 1.7 | 0.00 | 0.76 | 0.76 | 78 | 1014.4 |
| 20260508144507 | 62 | 284 | 0.0 | 1.7 | 0.00 | 0.76 | 0.76 | 79 | 1014.6 |
| 20260508144008 | 62 | 284 | 0.0 | 3.5 | 0.00 | 0.76 | 0.76 | 79 | 1014.6 |
| 20260508143508 | 62 | 284 | 0.0 | 3.5 | 0.00 | 0.76 | 0.76 | 79 | 1014.6 |
| 20260508143006 | 62 | 284 | 0.0 | 1.7 | 0.00 | 0.76 | 0.76 | 79 | 1014.5 |
| 20260508142507 | 61 | 284 | 0.0 | 1.7 | 0.00 | 0.76 | 0.76 | 80 | 1014.4 |
| 20260508142006 | 61 | 284 | 0.0 | 1.7 | 0.00 | 0.76 | 0.76 | 79 | 1014.6 |
| 20260508141505 | 61 | 284 | 0.0 | 1.7 | 0.00 | 0.76 | 0.76 | 79 | 1014.5 |
| 20260508141009 | 61 | 284 | 0.0 | 1.7 | 0.00 | 0.76 | 0.76 | 79 | 1014.7 |
| 20260508140505 | 61 | 284 | 0.0 | 2.6 | 0.00 | 0.76 | 0.76 | 79 | 1014.8 |
| 20260508140004 | 61 | 284 | 0.0 | 1.7 | 0.00 | 0.76 | 0.76 | 79 | 1014.7 |
| 20260508135504 | 61 | 284 | 0.0 | 1.7 | 0.00 | 0.76 | 0.76 | 79 | 1014.6 |
| 20260508135004 | 60 | 284 | 0.0 | 1.7 | 0.00 | 0.76 | 0.76 | 79 | 1014.7 |
| 20260508134505 | 60 | 284 | 0.0 | 2.6 | 0.00 | 0.76 | 0.76 | 79 | 1014.7 |
| 20260508134003 | 60 | 284 | 0.0 | 2.6 | 0.00 | 0.76 | 0.76 | 79 | 1014.7 |
| 20260508133506 | 60 | 284 | 0.0 | 0.9 | 0.00 | 0.76 | 0.76 | 79 | 1014.9 |
| 20260508133002 | 60 | 284 | 0.0 | 3.5 | 0.00 | 0.76 | 0.76 | 79 | 1014.9 |
| 20260508132503 | 60 | 284 | 0.9 | 3.5 | 0.00 | 0.76 | 0.76 | 79 | 1014.7 |
| 20260508132002 | 60 | 285 | 0.0 | 2.6 | 0.00 | 0.76 | 0.76 | 79 | 1014.6 |
| 20260508131502 | 60 | 286 | 0.0 | 3.5 | 0.00 | 0.76 | 0.76 | 79 | 1014.4 |
| 20260508131002 | 60 | 286 | 0.0 | 2.6 | 0.00 | 0.76 | 0.76 | 79 | 1014.4 |
| 20260508130600 | 60 | 287 | 0.0 | 5.2 | 0.00 | 0.76 | 0.76 | 79 | 1014.2 |
| 20260508130112 | 60 | 287 | 0.0 | 5.2 | 0.00 | 0.76 | 0.76 | 79 | 1014.7 |
| 20260508125600 | 60 | 291 | 0.0 | 0.9 | 0.00 | 0.76 | 0.76 | 79 | 1014.8 |
| 20260508125059 | 60 | 291 | 0.0 | 1.7 | 0.01 | 0.76 | 0.76 | 79 | 1014.7 |
| 20260508124558 | 60 | 291 | 0.0 | 1.7 | 0.01 | 0.76 | 0.76 | 78 | 1014.9 |
| 20260508124057 | 60 | 291 | 0.0 | 1.7 | 0.01 | 0.76 | 0.76 | 78 | 1015.5 |
| 20260508123558 | 60 | 291 | 0.0 | 1.7 | 0.01 | 0.76 | 0.76 | 78 | 1015.3 |
| 20260508123105 | 60 | 291 | 0.0 | 0.9 | 0.04 | 0.76 | 0.76 | 77 | 1015.0 |
| 20260508122555 | 60 | 291 | 0.0 | 1.7 | 0.16 | 0.76 | 0.76 | 77 | 1014.9 |
| 20260508122057 | 60 | 291 | 0.0 | 1.7 | 0.17 | 0.76 | 0.76 | 77 | 1015.0 |
| 20260508121603 | 60 | 291 | 0.0 | 1.7 | 0.17 | 0.76 | 0.76 | 77 | 1014.9 |
| 20260508121055 | 60 | 291 | 0.0 | 5.2 | 0.17 | 0.76 | 0.76 | 77 | 1014.9 |
| 20260508120554 | 60 | 314 | 0.0 | 4.3 | 0.18 | 0.76 | 0.76 | 77 | 1014.8 |
| 20260508120057 | 60 | 324 | 0.0 | 1.7 | 0.20 | 0.76 | 0.76 | 77 | 1014.6 |
| 20260508115554 | 59 | 324 | 0.0 | 1.7 | 0.23 | 0.76 | 0.76 | 76 | 1014.9 |
| 20260508115052 | 59 | 324 | 0.0 | 1.7 | 0.26 | 0.75 | 0.75 | 75 | 1014.9 |
| 20260508114553 | 59 | 217 | 0.0 | 0.9 | 0.33 | 0.75 | 0.75 | 74 | 1014.8 |
| 20260508114052 | 59 | 217 | 0.0 | 1.7 | 0.47 | 0.75 | 0.75 | 74 | 1014.6 |
| 20260508113552 | 60 | 217 | 0.0 | 1.7 | 0.53 | 0.75 | 0.75 | 73 | 1014.6 |
| 20260508113051 | 60 | 217 | 0.0 | 2.6 | 0.50 | 0.71 | 0.71 | 72 | 1014.5 |
| 20260508112551 | 60 | 217 | 0.0 | 2.6 | 0.40 | 0.59 | 0.59 | 70 | 1014.8 |
| 20260508112049 | 60 | 217 | 0.0 | 1.7 | 0.59 | 0.59 | 0.59 | 69 | 1014.2 |
| 20260508111549 | 60 | 217 | 0.0 | 1.7 | 0.59 | 0.59 | 0.59 | 69 | 1014.3 |
| 20260508111052 | 59 | 217 | 0.0 | 1.7 | 0.59 | 0.59 | 0.59 | 68 | 1014.3 |
| 20260508110547 | 60 | 217 | 0.0 | 1.7 | 0.56 | 0.56 | 0.56 | 67 | 1014.7 |
| 20260508110049 | 60 | 217 | 0.0 | 0.9 | 0.56 | 0.56 | 0.56 | 66 | 1014.7 |
| 20260508105548 | 60 | 217 | 0.0 | 1.7 | 0.53 | 0.53 | 0.53 | 65 | 1014.8 |
| 20260508105050 | 60 | 217 | 0.9 | 4.3 | 0.48 | 0.48 | 0.48 | 65 | 1015.0 |
| 20260508104615 | 61 | 217 | 0.9 | 4.3 | 0.42 | 0.42 | 0.42 | 65 | 1015.2 |
| 20260508104046 | 61 | 218 | 0.0 | 1.7 | 0.28 | 0.28 | 0.28 | 65 | 1015.1 |
| 20260508103546 | 61 | 218 | 0.0 | 1.7 | 0.22 | 0.22 | 0.22 | 64 | 1014.9 |
| 20260508103047 | 61 | 218 | 0.0 | 1.7 | 0.21 | 0.21 | 0.21 | 64 | 1014.7 |
| 20260508102547 | 61 | 218 | 0.0 | 5.2 | 0.18 | 0.18 | 0.18 | 63 | 1014.5 |
| 20260508102047 | 61 | 218 | 1.7 | 5.2 | 0.00 | 0.00 | 0.00 | 63 | 1015.5 |
| 20260508101549 | 61 | 185 | 0.0 | 2.6 | 0.00 | 0.00 | 0.00 | 62 | 1014.4 |
| 20260508101045 | 61 | 185 | 0.0 | 1.7 | 0.00 | 0.00 | 0.00 | 62 | 1013.7 |
| 20260508100544 | 61 | 185 | 0.0 | 4.3 | 0.00 | 0.00 | 0.00 | 63 | 1013.8 |
| 20260508100045 | 61 | 185 | 0.0 | 4.3 | 0.00 | 0.00 | 0.00 | 63 | 1013.7 |
| 20260508095544 | 61 | 185 | 0.0 | 4.3 | 0.00 | 0.00 | 0.00 | 64 | 1013.7 |
| 20260508095044 | 61 | 185 | 0.0 | 3.5 | 0.00 | 0.00 | 0.00 | 64 | 1013.8 |
| 20260508094547 | 61 | 185 | 0.0 | 2.6 | 0.00 | 0.00 | 0.00 | 64 | 1013.8 |
| 20260508094043 | 61 | 185 | 0.0 | 2.6 | 0.00 | 0.00 | 0.00 | 64 | 1013.7 |
| 20260508093543 | 61 | 185 | 0.0 | 3.5 | 0.00 | 0.00 | 0.00 | 64 | 1013.9 |
| 20260508093043 | 61 | 185 | 0.9 | 3.5 | 0.00 | 0.00 | 0.00 | 64 | 1014.0 |
| 20260508092546 | 61 | 185 | 0.0 | 0.0 | 0.00 | 0.00 | 0.00 | 64 | 1014.0 |
| 20260508092041 | 61 | 185 | 0.0 | 1.7 | 0.00 | 0.00 | 0.00 | 64 | 1014.0 |
| 20260508091541 | 61 | 185 | 0.0 | 2.6 | 0.00 | 0.00 | 0.00 | 64 | 1014.3 |
| 20260508091043 | 61 | 185 | 0.0 | 2.6 | 0.00 | 0.00 | 0.00 | 64 | 1014.1 |
| 20260508090541 | 61 | 185 | 0.0 | 2.6 | 0.00 | 0.00 | 0.00 | 64 | 1014.0 |
| 20260508090047 | 61 | 185 | 0.0 | 1.7 | 0.00 | 0.00 | 0.00 | 64 | 1014.3 |
| 20260508085540 | 61 | 185 | 0.0 | 1.7 | 0.00 | 0.00 | 0.00 | 64 | 1014.8 |
| 20260508085040 | 62 | 185 | 0.0 | 0.9 | 0.00 | 0.00 | 0.00 | 64 | 1014.4 |
| 20260508084538 | 62 | 185 | 0.0 | 1.7 | 0.00 | 0.00 | 0.00 | 63 | 1014.5 |
| 20260508084038 | 62 | 185 | 0.0 | 1.7 | 0.00 | 0.00 | 0.00 | 63 | 1014.6 |
| 20260508083540 | 62 | 185 | 0.9 | 2.6 | 0.00 | 0.00 | 0.00 | 63 | 1014.7 |
| 20260508083051 | 62 | 185 | 0.0 | 2.6 | 0.00 | 0.00 | 0.00 | 62 | 1014.3 |
| 20260508082539 | 62 | 185 | 0.0 | 3.5 | 0.00 | 0.00 | 0.00 | 62 | 1014.4 |
| 20260508082036 | 62 | 185 | 1.7 | 3.5 | 0.00 | 0.00 | 0.00 | 62 | 1014.7 |
| 20260508081544 | 62 | 185 | 0.0 | 2.6 | 0.00 | 0.00 | 0.00 | 62 | 1014.4 |
| 20260508081034 | 62 | 185 | 0.0 | 3.5 | 0.00 | 0.00 | 0.00 | 61 | 1014.8 |
| 20260508080533 | 61 | 185 | 0.0 | 3.5 | 0.00 | 0.00 | 0.00 | 62 | 1014.8 |
| 20260508080041 | 61 | 185 | 0.9 | 2.6 | 0.00 | 0.00 | 0.00 | 62 | 1015.4 |
| 20260508075533 | 60 | 185 | 0.0 | 2.6 | 0.00 | 0.00 | 0.00 | 63 | 1015.6 |
| 20260508075033 | 60 | 185 | 0.0 | 3.5 | 0.00 | 0.00 | 0.00 | 63 | 1015.7 |
| 20260508074533 | 60 | 185 | 0.0 | 1.7 | 0.00 | 0.00 | 0.00 | 63 | 1015.7 |
| 20260508074032 | 60 | 185 | 0.0 | 0.9 | 0.00 | 0.00 | 0.00 | 64 | 1015.6 |
| 20260508073532 | 60 | 185 | 0.0 | 0.9 | 0.00 | 0.00 | 0.00 | 63 | 1015.3 |
| 20260508073031 | 60 | 185 | 0.0 | 0.9 | 0.00 | 0.00 | 0.00 | 64 | 1015.4 |
| 20260508072530 | 60 | 185 | 0.0 | 0.0 | 0.00 | 0.00 | 0.00 | 64 | 1015.2 |
| 20260508072030 | 60 | 185 | 0.0 | 0.0 | 0.00 | 0.00 | 0.00 | 64 | 1015.1 |
| 20260508071529 | 60 | 185 | 0.0 | 0.0 | 0.00 | 0.00 | 0.00 | 64 | 1015.2 |
| 20260508071029 | 60 | 185 | 0.0 | 0.0 | 0.00 | 0.00 | 0.00 | 64 | 1015.3 |
| 20260508070532 | 60 | 185 | 0.0 | 0.0 | 0.00 | 0.00 | 0.00 | 64 | 1015.4 |
| 20260508070045 | 60 | 185 | 0.0 | 0.9 | 0.00 | 0.00 | 0.00 | 64 | 1015.4 |
| 20260508065528 | 60 | 185 | 0.0 | 0.9 | 0.00 | 0.00 | 0.00 | 64 | 1015.4 |
| 20260508065026 | 60 | 185 | 0.0 | 0.9 | 0.00 | 0.00 | 0.00 | 64 | 1015.6 |
| 20260508064532 | 60 | 185 | 0.0 | 0.9 | 0.00 | 0.00 | 0.00 | 64 | 1015.7 |
| 20260508064026 | 60 | 185 | 0.0 | 0.0 | 0.00 | 0.00 | 0.00 | 64 | 1016.1 |
| 20260508063528 | 60 | 185 | 0.0 | 0.0 | 0.00 | 0.00 | 0.00 | 64 | 1016.2 |
| 20260508063026 | 60 | 185 | 0.0 | 0.0 | 0.00 | 0.00 | 0.00 | 64 | 1016.2 |
| 20260508062526 | 60 | 185 | 0.0 | 0.0 | 0.00 | 0.00 | 0.00 | 64 | 1016.0 |
| 20260508062025 | 60 | 185 | 0.0 | 0.0 | 0.00 | 0.00 | 0.00 | 64 | 1016.1 |
| 20260508061524 | 60 | 185 | 0.0 | 0.0 | 0.00 | 0.00 | 0.00 | 64 | 1015.8 |
| 20260508061024 | 60 | 185 | 0.0 | 0.0 | 0.00 | 0.00 | 0.00 | 64 | 1015.8 |
| 20260508060524 | 60 | 185 | 0.0 | 0.0 | 0.00 | 0.00 | 0.00 | 64 | 1015.8 |
| 20260508060022 | 60 | 185 | 0.0 | 0.0 | 0.00 | 0.00 | 0.00 | 64 | 1015.7 |
| 20260508055522 | 60 | 185 | 0.0 | 0.0 | 0.00 | 0.00 | 0.00 | 64 | 1015.9 |
| 20260508055021 | 61 | 185 | 0.0 | 0.0 | 0.00 | 0.00 | 0.00 | 64 | 1015.8 |
| 20260508054520 | 61 | 185 | 0.0 | 0.0 | 0.00 | 0.00 | 0.00 | 64 | 1015.7 |
| 20260508054019 | 61 | 185 | 0.0 | 0.0 | 0.00 | 0.00 | 0.00 | 63 | 1015.7 |
| 20260508053519 | 61 | 185 | 0.0 | 0.0 | 0.00 | 0.00 | 0.00 | 63 | 1015.8 |
| 20260508053018 | 61 | 185 | 0.0 | 0.0 | 0.00 | 0.00 | 0.00 | 63 | 1016.0 |
| 20260508052516 | 61 | 185 | 0.0 | 0.0 | 0.00 | 0.00 | 0.00 | 63 | 1016.1 |
| 20260508052017 | 61 | 185 | 0.0 | 0.0 | 0.00 | 0.00 | 0.00 | 63 | 1016.0 |
| 20260508051516 | 62 | 185 | 0.0 | 0.0 | 0.00 | 0.00 | 0.00 | 63 | 1016.0 |
| 20260508051015 | 62 | 185 | 0.0 | 0.0 | 0.00 | 0.00 | 0.00 | 63 | 1016.1 |
| 20260508050514 | 62 | 185 | 0.0 | 0.0 | 0.00 | 0.00 | 0.00 | 63 | 1016.0 |
| 20260508050015 | 62 | 185 | 0.0 | 0.0 | 0.00 | 0.00 | 0.00 | 63 | 1015.9 |
| 20260508045513 | 62 | 185 | 0.0 | 0.0 | 0.00 | 0.00 | 0.00 | 63 | 1015.9 |
| 20260508045013 | 62 | 185 | 0.0 | 0.0 | 0.00 | 0.00 | 0.00 | 63 | 1015.9 |
| 20260508044513 | 62 | 185 | 0.0 | 0.0 | 0.00 | 0.00 | 0.00 | 63 | 1015.9 |
| 20260508044013 | 62 | 185 | 0.0 | 0.0 | 0.00 | 0.00 | 0.00 | 62 | 1016.0 |
| 20260508043512 | 62 | 185 | 0.0 | 0.0 | 0.00 | 0.00 | 0.00 | 63 | 1015.9 |
| 20260508043012 | 62 | 185 | 0.0 | 0.0 | 0.00 | 0.00 | 0.00 | 62 | 1015.8 |
| 20260508042512 | 62 | 185 | 0.0 | 0.0 | 0.00 | 0.00 | 0.00 | 62 | 1016.0 |
| 20260508042012 | 62 | 185 | 0.0 | 0.0 | 0.00 | 0.00 | 0.00 | 62 | 1016.0 |
| 20260508041511 | 62 | 185 | 0.0 | 0.0 | 0.00 | 0.00 | 0.00 | 62 | 1015.9 |
| 20260508041012 | 62 | 185 | 0.0 | 0.0 | 0.00 | 0.00 | 0.00 | 62 | 1015.9 |
| 20260508040511 | 63 | 185 | 0.0 | 0.0 | 0.00 | 0.00 | 0.00 | 61 | 1015.9 |
| 20260508040020 | 63 | 185 | 0.0 | 0.0 | 0.00 | 0.00 | 0.00 | 61 | 1016.0 |
| 20260508035514 | 63 | 185 | 0.0 | 0.0 | 0.00 | 0.00 | 0.00 | 61 | 1016.1 |
| 20260508035011 | 63 | 185 | 0.0 | 0.0 | 0.00 | 0.00 | 0.00 | 61 | 1016.0 |
| 20260508034513 | 63 | 185 | 0.0 | 0.0 | 0.00 | 0.00 | 0.00 | 61 | 1016.0 |
| 20260508034014 | 64 | 185 | 0.0 | 0.0 | 0.00 | 0.00 | 0.00 | 61 | 1016.0 |
| 20260508033514 | 64 | 185 | 0.0 | 0.9 | 0.00 | 0.00 | 0.00 | 60 | 1015.9 |
| 20260508033010 | 64 | 185 | 0.0 | 0.9 | 0.00 | 0.00 | 0.00 | 60 | 1015.9 |